Voltar ao catálogo

GPM

AtivoMeteoVLEO
NORAD 39574·PAYLOAD·🇯🇵 Japan

Lançado Feb 27, 2014 de Tanegashima Space Center

Loading…

Próximas Passagens (próximas 24 horas)

TLE

AtualizadoSource: Space-Track

Época: Sep 14, 2026, 14:33 UTC

1 39574U 14009C   26257.60668960  .00009283  00000-0  20102-3 0  9995
2 39574  64.9727   8.4928 0011154 260.7386  99.2494 15.44930607711623

Acompanhe GPM em tempo real com AllMySat

Download on the App Store